Find Starlink 4080

NORAD ID: 52835 Int'l Des: 2022-062 Owner: SPXS Country: US Constellation: starlink operational
LEOCIRCULAR

現在のビュー

3D地球を読み込み中...

About Starlink 4080

Starlink 4080 (NORAD 52835) is a starlink constellation satellite (v1.5) launched Jun 17, 2022 by SPXS of US. It operates in LEO, CIRCULAR orbit with a mass of 297.00 kg.

Starlink 4080について

説明を読み込み中...

次回通過

Passes for default location (London). Set your location on the main map for personalized predictions.

高度履歴

Loading altitude history...

軌道要素

1 52835U 22062F 26169.64108836 .00000276 00000-0 35418-4 0 9995
2 52835 53.1600 300.8264 0001206 87.4666 272.6464 15.08839517221024
Epoch: Jun 18, 2026 • Age: 6 hours

現在のステータス

高度 549.4 km
速度 7.59 km/s
衛星直下点 -30.05°S, 43.37°E
打ち上げ日 Jun 17, 2022
運用期間 4 years
タイプ internet

技術仕様

分類 Payload
質量 297.00 kg
乾燥質量 275.00 kg
総質量 297.00 kg
長さ 0.20 m
直径 2.80 m
スパン 9.00 m
形状 Box + pan
製造者 SPXS
バスタイプ Starlink
フェーズステータス In Orbit
所有者/国 SPXS/US

Most Searched